Lancaster, OH

8:40 AM EDT on October 01, 2016 (GMT -0400)
Fairfield County

Weather History for KLHQ - December, 2013

Change the Weather History Date:

Wednesday, December 18, 2013

  Actual Average Record
Temperature  
Mean Temperature 25 °F -  
Max Temperature 32 °F 38 °F 68 °F (1984)
Min Temperature 18 °F 20 °F -12 °F (1989)
Degree Days  
Heating Degree Days 40    
Moisture  
Dew Point 19 °F    
Average Humidity 73    
Maximum Humidity 84    
Minimum Humidity 54    
Precipitation  
Precipitation 0.00 in - - ()
Sea Level Pressure  
Sea Level Pressure 30.19 in    
Wind  
Wind Speed 9 mph (SW)    
Max Wind Speed 14 mph    
Max Gust Speed 22 mph    
Visibility 9 miles    
Events      
Averages and records for this station are not official NWS values.
T = Trace of Precipitation, MM = Missing Value Source: NWS Daily Summary

Daily Weather History Graph

Daily Weather History Graph

Search for Another Location

Airport or City:

Trip Planner

Search our weather history database for the weather conditions in past years. The results will help you decide how hot, cold, wet, or windy it might be!

Date:

Astronomy

Dec. 18, 2013 Rise Set
Actual Time 7:46 AM EST 5:08 PM EST
Civil Twilight 7:16 AM EST 5:38 PM EST
Nautical Twilight 6:42 AM EST 6:12 PM EST
Astronomical Twilight 6:09 AM EST 6:45 PM EST
Moon 6:38 PM EST (12/18) 8:25 AM EST (12/18)
Length of Visible Light 10h 22m
Length of Day
9h 21m
Full, 98% of the Moon is Illuminated
Dec 18
Full
Dec 25
Last Quarter
Jan 1
New
Jan 7
First Quarter
Jan 15
Full

Hourly Weather History & Observations

Time (EST) Temp. Windchill Dew Point Humidity Pressure Visibility Wind Dir Wind Speed Gust Speed Precip Events Conditions
12:53 AM 28.9 °F 21.1 °F 21.9 °F 75% 30.14 in 9.0 mi SW 8.1 mph - N/A   Overcast
1:28 AM 28.4 °F 21.2 °F 23.0 °F 80% 30.11 in 8.0 mi SW 6.9 mph - N/A   Overcast
1:53 AM 28.9 °F 21.1 °F 23.0 °F 78% 30.14 in 9.0 mi WSW 8.1 mph - N/A   Overcast
2:53 AM 28.0 °F 18.6 °F 21.9 °F 78% 30.15 in 8.0 mi WSW 10.4 mph - N/A   Mostly Cloudy
3:01 AM 26.6 °F 17.5 °F 21.2 °F 80% 30.13 in 8.0 mi WSW 9.2 mph - N/A   Scattered Clouds
3:53 AM 27.0 °F 17.3 °F 21.9 °F 81% 30.16 in 8.0 mi WSW 10.4 mph - N/A   Mostly Cloudy
4:53 AM 27.0 °F 18.7 °F 21.9 °F 81% 30.17 in 8.0 mi SW 8.1 mph - N/A   Overcast
5:12 AM 26.6 °F 16.8 °F 21.2 °F 80% 30.14 in 8.0 mi WSW 10.4 mph - N/A   Overcast
5:53 AM 27.0 °F 18.0 °F 21.9 °F 81% 30.18 in 8.0 mi WSW 9.2 mph - N/A   Overcast
6:13 AM 26.6 °F 16.2 °F 21.2 °F 80% 30.15 in 8.0 mi WSW 11.5 mph - N/A   Overcast
6:53 AM 27.0 °F 18.0 °F 21.9 °F 81% 30.19 in 8.0 mi WSW 9.2 mph - N/A   Overcast
7:53 AM 27.0 °F 15.6 °F 21.0 °F 78% 30.22 in 7.0 mi WSW 13.8 mph 21.9 mph N/A   Overcast
8:53 AM 25.0 °F 14.2 °F 19.0 °F 78% 30.23 in 7.0 mi WSW 11.5 mph - N/A   Overcast
9:53 AM 26.1 °F 15.6 °F 19.0 °F 75% 30.25 in 9.0 mi WSW 11.5 mph - N/A   Overcast
10:53 AM 26.1 °F 14.5 °F 18.0 °F 71% 30.26 in 10.0 mi WSW 13.8 mph - N/A   Overcast
11:10 AM 24.8 °F 14.6 °F 17.6 °F 74% 30.23 in 10.0 mi West 10.4 mph - N/A   Scattered Clouds
11:29 AM 26.6 °F 15.7 °F 17.6 °F 69% 30.24 in 10.0 mi West 12.7 mph - N/A   Mostly Cloudy
11:41 AM 26.6 °F 15.2 °F 17.6 °F 69% 30.23 in 10.0 mi West 13.8 mph 20.7 mph N/A   Scattered Clouds
11:53 AM 27.0 °F 16.7 °F 18.0 °F 69% 30.27 in 10.0 mi WSW 11.5 mph - N/A   Partly Cloudy
12:53 PM 27.0 °F 15.6 °F 17.1 °F 66% 30.26 in 10.0 mi West 13.8 mph - N/A   Partly Cloudy
1:53 PM 28.0 °F 18.6 °F 18.0 °F 66% 30.25 in 10.0 mi WSW 10.4 mph - N/A   Clear
2:53 PM 28.9 °F 18.2 °F 18.0 °F 64% 30.25 in 10.0 mi West 13.8 mph 19.6 mph N/A   Clear
3:53 PM 30.0 °F 23.2 °F 18.0 °F 61% 30.24 in 10.0 mi SW 6.9 mph - N/A   Clear
4:53 PM 28.0 °F 22.8 °F 18.0 °F 66% 30.23 in 10.0 mi SSW 4.6 mph - N/A   Clear
5:53 PM 21.0 °F - 15.1 °F 78% 30.22 in 10.0 mi Calm Calm - N/A   Clear
6:53 PM 18.0 °F - 14.0 °F 84% 30.21 in 10.0 mi Calm Calm - N/A   Clear
7:53 PM 21.0 °F 16.2 °F 15.1 °F 78% 30.20 in 10.0 mi SSE 3.5 mph - N/A   Clear
8:53 PM 23.0 °F 17.0 °F 17.1 °F 78% 30.17 in 10.0 mi SSE 4.6 mph - N/A   Clear
9:53 PM 30.0 °F 22.4 °F 18.0 °F 61% 30.13 in 10.0 mi SSE 8.1 mph - N/A   Clear
10:53 PM 32.0 °F 24.8 °F 17.1 °F 54% 30.11 in 10.0 mi South 8.1 mph - N/A   Clear
11:53 PM 30.9 °F 24.3 °F 17.1 °F 57% 30.09 in 10.0 mi SSE 6.9 mph - N/A   Clear